This demonstration page uses our WeatherBlox Daily Observations layout. Learn more.

40.92501, -98.34201

Hourly Observations for October 1, 2020

Temp ( °F °C ) Dew Point ( °F °C ) Humidity (%) Winds ( mph kmh ) Pressure ( in mb ) Visibility ( mi km ) Precip ( " mm )
12:53 am 00:53 Clear 42 5.6 28 -2.2 58 58 WNW 7 11 30.24 1024 10 16.0934 0 0
1:53 am 01:53 Clear 42 5.6 28 -2.2 58 58 WNW 9 15 30.24 1024 10 16.0934 0 0
2:53 am 02:53 Clear 43 6.1 28 -2.2 56 56 W 9 15 30.25 1024 10 16.0934 0 0
3:53 am 03:53 Clear 48 8.9 27 -2.8 44 44 NW 13 20 30.27 1025 10 16.0934 0 0
4:53 am 04:53 Clear 45 7.2 27 -2.8 49 49 NW 9 15 30.3 1026 10 16.0934 0 0
5:53 am 05:53 Clear 43 6.1 28 -2.2 56 56 WNW 9 15 30.32 1027 10 16.0934 0 0
6:53 am 06:53 Clear 42 5.6 28 -2.2 58 58 WNW 10 17 30.36 1028 10 16.0934 0 0
7:53 am 07:53 Sunny 41 5 29 -1.7 62 62 NW 9 15 30.39 1029 10 16.0934 0 0
8:53 am 08:53 Sunny 47 8.3 30 -1.1 52 52 NW 12 19 30.4 1030 10 16.0934 0 0
9:53 am 09:53 Sunny 51 10.6 31 -0.6 46 46 N 24 39 30.41 1030 10 16.0934 0 0
10:53 am 10:53 Sunny 55 12.8 31 -0.6 40 40 N 25 41 30.42 1030 10 16.0934 0 0
11:53 am 11:53 Sunny 58 14.4 31 -0.6 36 36 NNW 20 31 30.42 1030 10 16.0934 0 0
12:53 pm 12:53 Sunny 59 15 29 -1.7 32 32 N 16 26 30.42 1030 10 16.0934 0 0
1:53 pm 13:53 Sunny 60 15.6 30 -1.1 32 32 NW 17 28 30.39 1029 10 16.0934 0 0
2:53 pm 14:53 Sunny 62 16.7 30 -1.1 30 30 NNW 17 28 30.36 1028 10 16.0934 0 0
3:53 pm 15:53 Sunny 62 16.7 30 -1.1 30 30 NNW 17 28 30.34 1027 10 16.0934 0 0
4:53 pm 16:53 Sunny 61 16.1 29 -1.7 30 30 NNW 14 22 30.32 1027 10 16.0934 0 0
5:53 pm 17:53 Sunny 60 15.6 29 -1.7 31 31 NNW 15 24 30.32 1027 10 16.0934 0 0
6:53 pm 18:53 Sunny 56 13.3 30 -1.1 37 37 NNW 7 11 30.34 1027 10 16.0934 0 0
7:53 pm 19:53 Clear 49 9.4 30 -1.1 48 48 NNW 3 6 30.35 1028 10 16.0934 0 0
8:53 pm 20:53 Clear 47 8.3 30 -1.1 52 52 Calm 30.34 1028 10 16.0934 0 0
9:53 pm 21:53 Clear 45 7.2 31 -0.6 58 58 Calm 30.35 1028 10 16.0934 0 0
10:53 pm 22:53 Clear 43 6.1 31 -0.6 63 63 E 6 9 30.34 1028 10 16.0934 0 0
11:53 pm 23:53 Clear 41 5 31 -0.6 67 67 Calm 30.34 1027 10 16.0934 0 0

Powered by AerisWeather